Location: Joffre
(52.3362°N, 113.5373°W)
Time: 11:15:20
(UTC+00:00)

N. Korean satellite - Pass Details

Date: 06 December 2021
Orbit: 447 x 491 km, 97.3° (Epoch: 21 January)

Event Time Altitude Azimuth Distance (km) Brightness Sun altitude
Rises 11:42:05 0° 32° (NNE) 2,468 10.6 -33.3°
Reaches altitude 10° 11:45:23 10° 67° (ENE) 1,584 9.9 -32.8°
Maximum altitude 11:46:35 12° 88° (E) 1,491 9.8 -32.6°
Drops below altitude 10° 11:47:47 10° 109° (ESE) 1,577 9.9 -32.4°
Sets 11:51:02 0° 144° (SE) 2,442 10.5 -31.9°
